NORTHERN NASSAU  -  Areal Flood Advisory Areal Flood Advisory     Special Weather Statement Special Weather Statement        NORTHERN QUEENS  -  Areal Flood Advisory Areal Flood Advisory        SOUTHERN NASSAU  -  Areal Flood Advisory Areal Flood Advisory     Special Weather Statement Special Weather Statement        SOUTHERN QUEENS  -  Areal Flood Advisory Areal Flood Advisory        NORTHEAST SUFFOLK  -  Special Weather Statement Special Weather Statement        NORTHWEST SUFFOLK  -  Special Weather Statement Special Weather Statement        SOUTHEAST SUFFOLK  -  Special Weather Statement Special Weather Statement        SOUTHWEST SUFFOLK  -  Special Weather Statement Special Weather Statement      

Active alerts

Northern Queens
  Details for Northern Queens Areal Flood Advisory
Southern Queens
  Details for Southern Queens Areal Flood Advisory
Northern Nassau
  Details for Northern Nassau Areal Flood Advisory  +1 additional alert
Southern Nassau
  Details for Southern Nassau Areal Flood Advisory  +1 additional alert
Northwest Suffolk
  Details for Northwest Suffolk Special Weather Statement
Southwest Suffolk
  Details for Southwest Suffolk Special Weather Statement
Northeast Suffolk
  Details for Northeast Suffolk Special Weather Statement
Southeast Suffolk
  Details for Southeast Suffolk Special Weather Statement


WXM80 ListenWXM80 Stop

You find our weather info also at:

UK Metoffice

WeatherCloud

Weather Underground

Northeastern Weather Network

AWEKAS

Citizen Weather Observer Program (CWOP)

HAMweather, WeatherForYou, PWS Weather


Weather Underground History page Text

Daily Summary for January 10, 2018 Units:  Both    English   Metric
« Previous Day
Next Day »
Daily Weekly Monthly Yearly Custom
  High: Low: Average:
Temperature: TemperatureF °F /  -17.8 °C 23.5 °F /  -4.7 °C 34.3 °F /  1.3 °C
Dew Point: DewpointF °F /  -17.8 °C 20.7 °F /  -6.3 °C 28.8 °F /  -1.8 °C
Humidity: Humidity % 68 % 79 %
Wind Speed: WindSpeedMPH mph /  0 km/h - 1.1 mph /  1.8 km/h
Wind Gust: WindSpeedGustMPH mph /  0 km/h - -
Wind:- - ESE
Pressure: PressureIn in /  0 hPa 30.16 in /  1021.2 hPa -
Precipitation: 0.00 in /  0 mm    
Historical Graphs
 
 
Tabular Data for January 10, 2018
Time Temperature Dew Point Pressure Wind Wind Speed Wind Gust Humidity Rainfall Rate (Hourly)
TemperatureF °F /  -17.8 °C DewpointF °F /  -17.8 °C PressureIn in /  0 hPa Calm     Humidity % HourlyPrecipIn in /  0 mm
02:07 31.0 °F /  -0.6 °C 23.4 °F /  -4.8 °C 30.42 in /  1030 hPa NNE 4.4 mph /  7.1 km/h 8.1 mph /  13 km/h 73 % 0.00 in /  0 mm
08:17 23.5 °F /  -4.7 °C 20.7 °F /  -6.3 °C 30.49 in /  1032.4 hPa NNE 1.6 mph /  2.6 km/h 5.0 mph /  8 km/h 89 % 0.00 in /  0 mm
08:25 24.2 °F /  -4.3 °C 21.4 °F /  -5.9 °C 30.49 in /  1032.4 hPa NNE 0.5 mph /  0.8 km/h 2.0 mph /  3.2 km/h 89 % 0.00 in /  0 mm
08:44 26.6 °F /  -3 °C 23.8 °F /  -4.6 °C 30.25 in /  1024.3 hPa NNE 1.6 mph /  2.6 km/h 5.0 mph /  8 km/h 89 % 0.00 in /  0 mm
08:45 26.6 °F /  -3 °C 23.5 °F /  -4.7 °C 30.51 in /  1033.1 hPa NNE 2.4 mph /  3.9 km/h 2.4 mph /  3.9 km/h 88 % 0.00 in /  0 mm
08:50 27.3 °F /  -2.6 °C 23.9 °F /  -4.5 °C 30.26 in /  1024.6 hPa NE 2.8 mph /  4.5 km/h 4.0 mph /  6.4 km/h 87 % 0.00 in /  0 mm
09:39 33.1 °F /  0.6 °C 24.7 °F /  -4.1 °C 30.52 in /  1033.4 hPa ENE 2.0 mph /  3.2 km/h 3.5 mph /  5.6 km/h 71 % 0.00 in /  0 mm
09:44 33.5 °F /  0.8 °C 25.1 °F /  -3.8 °C 30.51 in /  1033.1 hPa ENE 2.1 mph /  3.4 km/h 3.5 mph /  5.6 km/h 71 % 0.00 in /  0 mm
09:53 34.2 °F /  1.2 °C 25.4 °F /  -3.7 °C 30.52 in /  1033.4 hPa ENE 2.1 mph /  3.4 km/h 4.0 mph /  6.4 km/h 70 % 0.00 in /  0 mm
10:03 34.7 °F /  1.5 °C 25.6 °F /  -3.6 °C 30.52 in /  1033.4 hPa ENE 4.0 mph /  6.4 km/h 7.0 mph /  11.3 km/h 69 % 0.00 in /  0 mm
10:37 35.9 °F /  2.2 °C 26.4 °F /  -3.1 °C 30.51 in /  1033.1 hPa NE 1.7 mph /  2.7 km/h 3.5 mph /  5.6 km/h 68 % 0.00 in /  0 mm
10:51 36.2 °F /  2.3 °C 26.6 °F /  -3 °C 30.50 in /  1032.7 hPa NE 2.7 mph /  4.3 km/h 3.5 mph /  5.6 km/h 68 % 0.00 in /  0 mm
11:11 36.4 °F /  2.4 °C 27.2 °F /  -2.7 °C 30.51 in /  1033.1 hPa NNE 0.3 mph /  0.5 km/h 3.5 mph /  5.6 km/h 69 % 0.00 in /  0 mm
11:19 36.4 °F /  2.4 °C 27.2 °F /  -2.7 °C 30.50 in /  1032.7 hPa NNE 1.3 mph /  2.1 km/h 3.0 mph /  4.8 km/h 69 % 0.00 in /  0 mm
11:29 36.2 °F /  2.3 °C 26.6 °F /  -3 °C 30.49 in /  1032.4 hPa NNW 1.6 mph /  2.6 km/h 3.5 mph /  5.6 km/h 68 % 0.00 in /  0 mm
12:08 35.5 °F /  1.9 °C 27.4 °F /  -2.6 °C 30.48 in /  1032.1 hPa North 2.3 mph /  3.7 km/h 3.5 mph /  5.6 km/h 72 % 0.00 in /  0 mm
12:15 35.5 °F /  1.9 °C 27.0 °F /  -2.8 °C 30.48 in /  1032.1 hPa NNW 2.0 mph /  3.2 km/h 3.5 mph /  5.6 km/h 71 % 0.00 in /  0 mm
12:25 35.8 °F /  2.1 °C 27.7 °F /  -2.4 °C 30.48 in /  1032.1 hPa NNE 3.2 mph /  5.1 km/h 4.6 mph /  7.4 km/h 72 % 0.00 in /  0 mm
12:32 36.2 °F /  2.3 °C 28.0 °F /  -2.2 °C 30.48 in /  1032.1 hPa Calm   3.5 mph /  5.6 km/h 72 % 0.00 in /  0 mm
12:39 36.9 °F /  2.7 °C 28.4 °F /  -2 °C 30.47 in /  1031.7 hPa NNE 1.0 mph /  1.6 km/h 3.5 mph /  5.6 km/h 71 % 0.00 in /  0 mm
12:52 37.4 °F /  3 °C 28.5 °F /  -1.9 °C 30.47 in /  1031.7 hPa North 2.6 mph /  4.2 km/h 3.5 mph /  5.6 km/h 70 % 0.00 in /  0 mm
12:59 37.5 °F /  3.1 °C 28.6 °F /  -1.9 °C 30.46 in /  1031.4 hPa NNE 2.5 mph /  4 km/h 4.0 mph /  6.4 km/h 70 % 0.00 in /  0 mm
19:12 34.1 °F /  1.2 °C 28.0 °F /  -2.2 °C 30.21 in /  1022.9 hPa Calm     78 % 0.00 in /  0 mm
19:25 34.0 °F /  1.1 °C 28.2 °F /  -2.1 °C 30.46 in /  1031.4 hPa Calm   1.2 mph /  1.9 km/h 79 % 0.00 in /  0 mm
19:30 34.0 °F /  1.1 °C 28.2 °F /  -2.1 °C 30.46 in /  1031.4 hPa SSE 0.2 mph /  0.3 km/h 2.3 mph /  3.7 km/h 79 % 0.00 in /  0 mm
19:36 34.0 °F /  1.1 °C 28.2 °F /  -2.1 °C 30.47 in /  1031.7 hPa SSE 0.5 mph /  0.8 km/h 1.2 mph /  1.9 km/h 79 % 0.00 in /  0 mm
19:42 34.1 °F /  1.2 °C 28.3 °F /  -2.1 °C 30.47 in /  1031.7 hPa SSE 1.6 mph /  2.6 km/h 2.3 mph /  3.7 km/h 79 % 0.00 in /  0 mm
19:47 34.1 °F /  1.2 °C 28.6 °F /  -1.9 °C 30.47 in /  1031.7 hPa Calm   2.3 mph /  3.7 km/h 80 % 0.00 in /  0 mm
19:53 34.1 °F /  1.2 °C 28.6 °F /  -1.9 °C 30.47 in /  1031.7 hPa Calm   1.2 mph /  1.9 km/h 80 % 0.00 in /  0 mm
20:01 34.2 °F /  1.2 °C 28.7 °F /  -1.8 °C 30.48 in /  1032.1 hPa Calm   1.2 mph /  1.9 km/h 80 % 0.00 in /  0 mm
20:16 34.6 °F /  1.4 °C 29.4 °F /  -1.4 °C 30.46 in /  1031.4 hPa SSE 0.9 mph /  1.4 km/h 2.3 mph /  3.7 km/h 81 % 0.00 in /  0 mm
20:46 35.2 °F /  1.8 °C 30.3 °F /  -0.9 °C 30.44 in /  1030.7 hPa South 1.0 mph /  1.6 km/h 5.0 mph /  8 km/h 82 % 0.00 in /  0 mm
20:51 35.3 °F /  1.8 °C 30.4 °F /  -0.9 °C 30.44 in /  1030.7 hPa Calm   2.0 mph /  3.2 km/h 82 % 0.00 in /  0 mm
21:00 35.4 °F /  1.9 °C 30.5 °F /  -0.8 °C 30.44 in /  1030.7 hPa South 1.5 mph /  2.4 km/h 3.5 mph /  5.6 km/h 82 % 0.00 in /  0 mm
21:24 35.6 °F /  2 °C 31.2 °F /  -0.4 °C 30.19 in /  1022.2 hPa South 0.9 mph /  1.4 km/h 2.3 mph /  3.7 km/h 84 % 0.00 in /  0 mm
21:35 35.7 °F /  2.1 °C 31.6 °F /  -0.2 °C 30.44 in /  1030.7 hPa South 1.7 mph /  2.7 km/h 3.5 mph /  5.6 km/h 85 % 0.00 in /  0 mm
21:51 35.9 °F /  2.2 °C 31.8 °F /  -0.1 °C 30.44 in /  1030.7 hPa SSW 2.0 mph /  3.2 km/h 3.5 mph /  5.6 km/h 85 % 0.00 in /  0 mm
21:59 36.1 °F /  2.3 °C 32.3 °F /  0.2 °C 30.44 in /  1030.7 hPa Calm   1.2 mph /  1.9 km/h 86 % 0.00 in /  0 mm
22:08 36.2 °F /  2.3 °C 32.4 °F /  0.2 °C 30.44 in /  1030.7 hPa Calm   1.2 mph /  1.9 km/h 86 % 0.00 in /  0 mm
22:25 36.5 °F /  2.5 °C 33.0 °F /  0.6 °C 30.18 in /  1021.9 hPa Calm   1.2 mph /  1.9 km/h 87 % 0.00 in /  0 mm
22:33 36.8 °F /  2.7 °C 33.6 °F /  0.9 °C 30.43 in /  1030.4 hPa South 1.8 mph /  2.9 km/h 3.5 mph /  5.6 km/h 88 % 0.00 in /  0 mm
22:39 37.0 °F /  2.8 °C 33.8 °F /  1 °C 30.43 in /  1030.4 hPa South 1.4 mph /  2.3 km/h 3.5 mph /  5.6 km/h 88 % 0.00 in /  0 mm
22:44 37.1 °F /  2.8 °C 33.9 °F /  1.1 °C 30.43 in /  1030.4 hPa SW 0.3 mph /  0.5 km/h 2.3 mph /  3.7 km/h 88 % 0.00 in /  0 mm
22:49 37.2 °F /  2.9 °C 34.0 °F /  1.1 °C 30.43 in /  1030.4 hPa Calm   1.2 mph /  1.9 km/h 88 % 0.00 in /  0 mm
22:57 37.4 °F /  3 °C 34.2 °F /  1.2 °C 30.43 in /  1030.4 hPa Calm     88 % 0.00 in /  0 mm
23:03 37.6 °F /  3.1 °C 34.4 °F /  1.3 °C 30.17 in /  1021.6 hPa Calm     88 % 0.00 in /  0 mm
23:08 37.7 °F /  3.2 °C 34.5 °F /  1.4 °C 30.43 in /  1030.4 hPa Calm     88 % 0.00 in /  0 mm
23:15 37.8 °F /  3.2 °C 34.6 °F /  1.4 °C 30.17 in /  1021.6 hPa Calm     88 % 0.00 in /  0 mm
23:25 37.8 °F /  3.2 °C 34.3 °F /  1.3 °C 30.42 in /  1030 hPa Calm     87 % 0.00 in /  0 mm
23:30 37.7 °F /  3.2 °C 34.2 °F /  1.2 °C 30.17 in /  1021.6 hPa Calm     87 % 0.00 in /  0 mm
23:35 37.7 °F /  3.2 °C 34.2 °F /  1.2 °C 30.41 in /  1029.7 hPa Calm     87 % 0.00 in /  0 mm
23:42 37.6 °F /  3.1 °C 34.1 °F /  1.2 °C 30.42 in /  1030 hPa Calm     87 % 0.00 in /  0 mm
23:47 37.5 °F /  3.1 °C 34.0 °F /  1.1 °C 30.41 in /  1029.7 hPa Calm     87 % 0.00 in /  0 mm
23:57 37.4 °F /  3 °C 34.2 °F /  1.2 °C 30.16 in /  1021.2 hPa SW 0.8 mph /  1.3 km/h 2.3 mph /  3.7 km/h 88 % 0.00 in /  0 mm
Crab Meadow Weather
Compliments of Weather Underground - 1.75 mb

Script developed by  Jim McMurry - jmcmurry@mwt.net Adapted for the template by  Wim van der Kuil - Leuven-Template.eu

Astronomy: Neptune was discovered in 1846 (over 150 years ago). Since that time it has still yet to make a complete orbit around the sun, because one Neptune year lasts 165 Earth years!